Location: Guayaquil
(2.1667°S, 79.9000°W)
Time: 00:38:50
(UTC-05:00)

Envisat - Visible Passes

Search period start: 20 October 2019 00:00
Search period end: 30 October 2019 00:00
Orbit: 764 x 766 km, 98.1° (Epoch: 19 October)

Date Brightness Start Highest point End Pass type
(mag) Time Alt. Az. Time Alt. Az. Time Alt. Az.
20 Oct 3.1 18:58:35 10° S 19:03:40 79° WSW 19:08:43 10° NNW visible
21 Oct 6.1 20:03:27 10° SW 20:05:42 13° WSW 20:07:57 10° WNW visible
22 Oct 4.5 19:24:26 10° S 19:29:05 37° WSW 19:33:44 10° NW visible
23 Oct 2.9 18:47:21 10° SSE 18:52:26 77° ENE 18:57:29 10° N visible
24 Oct 5.8 19:51:07 10° SW 19:54:30 18° WSW 19:57:51 10° WNW visible
25 Oct 3.9 19:12:56 10° S 19:17:51 50° WSW 19:22:45 10° NNW visible
26 Oct 3.1 18:36:13 10° SSE 18:41:12 56° ENE 18:46:08 10° N visible
27 Oct 5.3 19:39:13 10° SSW 19:43:16 24° WSW 19:47:19 10° NW visible
28 Oct 3.3 19:01:34 10° S 19:06:37 70° WSW 19:11:39 10° NNW visible
29 Oct 3.4 18:25:12 10° SSE 18:29:57 40° ENE 18:34:40 10° N visible
29 Oct 6.3 20:07:07 10° WSW 20:08:39 11° WSW 20:10:12 10° W visible
